Location: Unspecified
(47.6579°N, 23.5637°E)
Time: 17:00:23
(UTC+02:00)

ISS - Visible Passes

Search period start: 01 December 2021 00:00
Search period end: 11 December 2021 00:00
Orbit: 417 x 423 km, 51.6° (Epoch: 01 December)

Date Brightness Start Highest point End Pass type
(mag) Time Alt. Az. Time Alt. Az. Time Alt. Az.
01 Dec -3.3 18:10:17 10° WNW 18:13:35 46° N 18:14:26 37° NE visible
01 Dec -0.3 19:47:09 10° WNW 19:47:25 12° WNW 19:47:25 12° WNW visible
02 Dec -3.1 17:23:02 10° WNW 17:26:18 42° N 17:29:16 12° ENE visible
02 Dec -2.5 18:59:56 10° WNW 19:02:15 40° WNW 19:02:15 40° WNW visible
03 Dec -3.8 18:12:44 10° WNW 18:16:08 72° NNE 18:17:10 41° E visible
03 Dec -0.3 19:49:53 10° W 19:50:10 12° W 19:50:10 12° W visible
04 Dec -3.6 17:25:31 10° WNW 17:28:53 56° NNE 17:32:12 10° E visible
04 Dec -2.3 19:02:28 10° WNW 19:05:13 36° SW 19:05:13 36° SW visible
05 Dec -3.2 18:15:10 10° WNW 18:18:31 57° SSW 18:20:25 23° SE visible
06 Dec -3.7 17:27:55 10° WNW 17:31:19 82° SSW 17:34:43 10° ESE visible
06 Dec -1.1 19:05:30 10° W 19:07:44 16° SW 19:08:54 14° SSW visible
07 Dec -1.5 18:17:49 10° W 18:20:39 25° SW 18:23:30 10° SSE visible
08 Dec -2.1 17:30:22 10° WNW 17:33:32 37° SW 17:36:42 10° SSE visible
09 Dec -0.1 18:22:04 10° WSW 18:22:34 10° SW 18:23:04 10° SW visible
10 Dec -0.6 17:33:21 10° W 17:35:32 16° SW 17:37:43 10° S visible
